QPF
0.00 0.00 0.00 0.00 0.00 0.00 0.00 0.00 0.00 0.00 0.00 0.00 0.00 0.00 0.00 0.00 0.00 0.00 0.00 0.01 0.04 0.07 0.10 0.11 0.07 0.07 0.06 0.03 0.06 0.14 0.18 0.23 0.11 0.04 0.03 0.01 0.00 0.00 0.01 0.05 0.02 0.00 0.00
0.00 0.00 0.00 0.00 0.00 0.00 0.00 0.00 0.00 0.00 0.00 0.00 0.00 0.00 0.00 0.00 0.00 0.00 0.00 0.00 0.00 0.01 0.02 0.07 0.04 0.07 0.04 0.07 0.14 0.16 0.13 0.24 0.22 0.08 0.05 0.04 0.02 0.00 0.00 0.03 0.02 0.01 0.00
0.00 0.00 0.00 0.00 0.00 0.00 0.00 0.00 0.00 0.00 0.00 0.00 0.00 0.00 0.00 0.00 0.00 0.00 0.00 0.00 0.00 0.00 0.00 0.01 0.01 0.09 0.10 0.14 0.12 0.12 0.17 0.18 0.17 0.09 0.05 0.04 0.04 0.02 0.02 0.03 0.02 0.00 0.00
0.00 0.00 0.00 0.00 0.00 0.00 0.00 0.00 0.00 0.00 0.00 0.00 0.00 0.00 0.00 0.00 0.00 0.00 0.00 0.00 0.00 0.00 0.00 0.00 0.00 0.01 0.03 0.08 0.07 0.04 0.13 0.12 0.12 0.07 0.03 0.02 0.02 0.01 0.01 0.05 0.03 0.00 0.00
0.00 0.00 0.00 0.00 0.00 0.00 0.00 0.00 0.00 0.00 0.00 0.00 0.00 0.00 0.00 0.00 0.00 0.00 0.00 0.00 0.00 0.00 0.00 0.00 0.00 0.00 0.00 0.00 0.01 0.02 0.08 0.15 0.09 0.04 0.02 0.01 0.01 0.01 0.06 0.06 0.01 0.00 0.00
0.00 0.00 0.00 0.00 0.00 0.00 0.00 0.00 0.00 0.00 0.00 0.00 0.00 0.00 0.00 0.00 0.00 0.00 0.00 0.00 0.00 0.00 0.00 0.00 0.00 0.00 0.00 0.00 0.00 0.01 0.10 0.14 0.07 0.02 0.02 0.02 0.02 0.03 0.05 0.03 0.00 0.00 0.00
0.00 0.00 0.00 0.00 0.00 0.00 0.00 0.00 0.00 0.00 0.00 0.00 0.00 0.00 0.00 0.00 0.00 0.00 0.00 0.00 0.00 0.00 0.00 0.00 0.00 0.00 0.00 0.00 0.01 0.06 0.09 0.14 0.09 0.06 0.04 0.02 0.03 0.05 0.02 0.00 0.00 0.00 0.00
0.00 0.00 0.00 0.00 0.00 0.00 0.00 0.00 0.00 0.00 0.00 0.00 0.00 0.00 0.00 0.00 0.00 0.00 0.00 0.00 0.00 0.00 0.00 0.00 0.00 0.00 0.01 0.02 0.05 0.09 0.10 0.08 0.08 0.09 0.05 0.04 0.03 0.01 0.00 0.00 0.00 0.00 0.00
0.00 0.00 0.00 0.00 0.00 0.00 0.00 0.00 0.00 0.00 0.00 0.00 0.00 0.00 0.00 0.00 0.00 0.00 0.00 0.00 0.00 0.00 0.00 0.00 0.00 0.00 0.01 0.08 0.12 0.17 0.17 0.10 0.10 0.08 0.02 0.01 0.01 0.00 0.00 0.00 0.00 0.00 0.00
0.00 0.00 0.00 0.00 0.00 0.00 0.00 0.00 0.00 0.00 0.00 0.00 0.00 0.00 0.00 0.00 0.00 0.00 0.00 0.00 0.00 0.00 0.00 0.00 0.00 0.00 0.04 0.11 0.11 0.13 0.12 0.10 0.06 0.06 0.10 0.04 0.01 0.01 0.00 0.00 0.00 0.00 0.00
0.00 0.00 0.00 0.00 0.00 0.00 0.00 0.00 0.00 0.00 0.00 0.00 0.00 0.00 0.00 0.00 0.00 0.00 0.00 0.00 0.00 0.00 0.00 0.00 0.00 0.02 0.09 0.13 0.10 0.10 0.14 0.12 0.08 0.10 0.07 0.06 0.03 0.00 0.00 0.00 0.00 0.00 0.01
0.00 0.00 0.00 0.00 0.00 0.00 0.00 0.00 0.00 0.00 0.00 0.00 0.00 0.00 0.00 0.00 0.00 0.00 0.00 0.00 0.00 0.00 0.00 0.00 0.00 0.05 0.12 0.12 0.13 0.13 0.11 0.07 0.04 0.03 0.03 0.02 0.00 0.00 0.00 0.00 0.00 0.00 0.00
0.00 0.00 0.00 0.00 0.00 0.00 0.00 0.00 0.00 0.00 0.00 0.00 0.00 0.00 0.00 0.00 0.00 0.00 0.00 0.00 0.00 0.00 0.00 0.00 0.00 0.07 0.11 0.10 0.06 0.12 0.07 0.07 0.04 0.02 0.00 0.00 0.00 0.00 0.00 0.00 0.00 0.00 0.00
0.00 0.00 0.00 0.00 0.00 0.00 0.00 0.00 0.00 0.00 0.00 0.00 0.00 0.00 0.00 0.00 0.00 0.00 0.00 0.00 0.00 0.00 0.00 0.00 0.02 0.09 0.12 0.10 0.05 0.05 0.07 0.07 0.02 0.00 0.00 0.00 0.00 0.00 0.00 0.00 0.00 0.00 0.00
0.00 0.00 0.00 0.00 0.00 0.00 0.00 0.00 0.00 0.00 0.00 0.00 0.00 0.00 0.00 0.00 0.00 0.00 0.00 0.00 0.00 0.00 0.00 0.01 0.06 0.11 0.15 0.07 0.05 0.05 0.05 0.03 0.00 0.00 0.00 0.00 0.00 0.00 0.00 0.00 0.00 0.00 0.01
0.00 0.00 0.00 0.00 0.00 0.00 0.00 0.00 0.00 0.00 0.00 0.00 0.00 0.00 0.00 0.00 0.00 0.00 0.00 0.00 0.00 0.00 0.00 0.03 0.08 0.11 0.16 0.09 0.06 0.06 0.05 0.03 0.00 0.00 0.00 0.00 0.00 0.00 0.00 0.00 0.00 0.00 0.01
0.00 0.00 0.00 0.00 0.00 0.00 0.01 0.02 0.02 0.01 0.00 0.00 0.00 0.00 0.00 0.00 0.00 0.00 0.00 0.00 0.00 0.00 0.02 0.05 0.08 0.12 0.15 0.11 0.08 0.07 0.05 0.00 0.00 0.00 0.00 0.00 0.00 0.00 0.00 0.00 0.00 0.01 0.00
0.00 0.00 0.00 0.00 0.01 0.00 0.00 0.00 0.00 0.01 0.01 0.00 0.00 0.00 0.00 0.00 0.00 0.00 0.00 0.01 0.00 0.01 0.01 0.01 0.03 0.06 0.08 0.10 0.09 0.05 0.02 0.00 0.00 0.00 0.00 0.00 0.00 0.00 0.00 0.00 0.00 0.00 0.00
0.00 0.00 0.00 0.00 0.00 0.00 0.00 0.00 0.00 0.00 0.00 0.00 0.00 0.00 0.00 0.00 0.00 0.00 0.01 0.03 0.01 0.01 0.00 0.01 0.03 0.03 0.03 0.05 0.06 0.03 0.00 0.00 0.00 0.00 0.00 0.00 0.00 0.00 0.00 0.00 0.00 0.00 0.00
0.00 0.00 0.00 0.01 0.00 0.00 0.00 0.00 0.00 0.00 0.00 0.00 0.00 0.00 0.00 0.00 0.00 0.00 0.03 0.04 0.01 0.02 0.02 0.01 0.02 0.03 0.01 0.02 0.02 0.00 0.00 0.00 0.00 0.00 0.00 0.00 0.00 0.00 0.00 0.00 0.00 0.00 0.00
0.00 0.00 0.00 0.02 0.01 0.00 0.00 0.00 0.00 0.00 0.00 0.00 0.00 0.00 0.00 0.00 0.01 0.00 0.01 0.01 0.03 0.05 0.03 0.03 0.03 0.02 0.00 0.00 0.00 0.00 0.00 0.00 0.00 0.00 0.00 0.00 0.00 0.00 0.00 0.00 0.00 0.00 0.00
0.00 0.00 0.00 0.04 0.01 0.01 0.00 0.00 0.00 0.00 0.00 0.01 0.00 0.00 0.00 0.01 0.02 0.01 0.02 0.03 0.04 0.07 0.06 0.02 0.01 0.00 0.00 0.00 0.00 0.00 0.00 0.00 0.00 0.00 0.00 0.00 0.00 0.00 0.00 0.00 0.00 0.00 0.00
0.00 0.00 0.01 0.01 0.01 0.01 0.01 0.01 0.01 0.01 0.01 0.01 0.01 0.01 0.01 0.03 0.04 0.04 0.02 0.01 0.02 0.02 0.02 0.00 0.00 0.00 0.00 0.00 0.00 0.00 0.00 0.00 0.00 0.00 0.00 0.01 0.00 0.00 0.00 0.00 0.00 0.00 0.00
0.00 0.01 0.01 0.01 0.01 0.01 0.01 0.02 0.02 0.01 0.01 0.01 0.01 0.02 0.04 0.05 0.03 0.02 0.01 0.01 0.01 0.00 0.00 0.00 0.00 0.00 0.00 0.00 0.00 0.00 0.00 0.00 0.00 0.00 0.00 0.00 0.00 0.00 0.00 0.00 0.00 0.00 0.00
0.01 0.01 0.01 0.00 0.00 0.00 0.00 0.00 0.00 0.00 0.01 0.02 0.02 0.02 0.03 0.02 0.02 0.00 0.00 0.00 0.00 0.00 0.00 0.00 0.00 0.00 0.01 0.00 0.00 0.00 0.00 0.00 0.00 0.00 0.00 0.00 0.00 0.00 0.00 0.00 0.00 0.00 0.00
0.00 0.01 0.01 0.00 0.00 0.00 0.00 0.01 0.01 0.01 0.01 0.01 0.01 0.01 0.01 0.00 0.00 0.00 0.00 0.00 0.00 0.00 0.00 0.00 0.00 0.00 0.01 0.01 0.00 0.00 0.00 0.00 0.00 0.00 0.00 0.00 0.00 0.00 0.00 0.00 0.00 0.00 0.00
MSLP
1003.24 1003.54 1003.88 1004.36 1004.78 1005.10 1005.39 1005.30 1005.40 1005.47 1005.78 1006.10 1006.26 1006.54 1006.83 1006.95 1006.92 1007.27 1007.03 1006.75 1007.27 1007.32 1007.08 1007.10 1006.78 1006.86 1006.88 1007.40 1006.38 1007.29 1008.04 1008.36 1008.24 1007.18 1007.07 1006.86 1006.44 1006.50 1006.70 1006.82 1006.79 1007.30 1007.64
1003.16 1003.22 1003.46 1003.77 1004.40 1004.84 1005.07 1005.10 1005.11 1005.11 1005.23 1005.38 1005.68 1005.99 1006.24 1006.50 1006.69 1006.88 1007.13 1006.97 1007.22 1006.96 1006.88 1006.64 1006.18 1005.91 1005.96 1005.46 1005.92 1006.50 1006.70 1007.00 1007.58 1007.27 1007.06 1006.91 1006.86 1006.53 1006.71 1007.05 1007.06 1007.28 1007.59
1002.72 1003.35 1003.11 1003.26 1003.88 1004.20 1004.30 1004.66 1004.80 1004.87 1005.00 1005.18 1005.39 1005.73 1006.00 1006.22 1006.52 1006.76 1006.81 1006.79 1007.25 1006.70 1006.40 1006.44 1006.03 1005.52 1004.97 1004.73 1005.21 1005.29 1005.70 1005.94 1006.43 1006.62 1006.36 1006.56 1007.15 1006.74 1006.99 1007.10 1007.25 1007.30 1007.55
1001.74 1002.33 1002.82 1003.21 1003.16 1003.42 1003.48 1003.88 1004.22 1004.28 1004.52 1004.81 1005.03 1005.32 1005.60 1005.88 1006.18 1006.42 1006.58 1006.74 1006.90 1006.33 1006.17 1006.05 1005.58 1005.38 1004.80 1004.53 1004.42 1004.56 1004.95 1005.41 1005.69 1006.16 1006.17 1006.26 1006.90 1006.55 1006.60 1007.12 1007.46 1007.41 1007.75
1001.21 1001.38 1001.82 1002.13 1002.64 1002.52 1002.89 1003.21 1003.57 1003.92 1003.88 1004.10 1004.57 1004.87 1005.10 1005.49 1005.65 1005.76 1006.06 1005.99 1006.08 1006.14 1005.68 1005.40 1005.06 1004.73 1004.40 1004.45 1004.54 1004.25 1004.43 1004.96 1005.27 1005.38 1005.78 1005.68 1006.16 1006.24 1006.46 1006.87 1007.18 1007.50 1007.74
1000.72 1000.82 1000.82 1001.34 1001.70 1002.46 1002.73 1002.35 1002.88 1003.26 1003.40 1003.70 1004.16 1004.34 1004.72 1004.79 1004.80 1004.98 1005.26 1005.48 1005.32 1005.46 1004.92 1004.67 1004.44 1004.17 1003.85 1003.64 1003.69 1003.58 1003.32 1004.00 1004.29 1004.45 1004.62 1004.54 1005.26 1005.50 1005.96 1006.42 1007.12 1007.60 1007.88
1000.81 1000.08 1000.47 1000.94 1001.26 1001.14 1001.85 1002.44 1002.65 1002.57 1002.66 1003.08 1003.36 1003.70 1004.00 1004.17 1004.18 1004.34 1004.50 1004.80 1004.98 1005.16 1004.61 1004.15 1003.80 1003.30 1003.16 1003.00 1002.79 1002.54 1002.60 1002.60 1002.74 1002.91 1003.57 1003.54 1004.42 1004.49 1005.07 1006.10 1006.59 1006.75 1006.83
1000.02 1000.06 1000.28 1000.41 1000.42 1000.66 1001.05 1001.16 1001.49 1001.89 1002.14 1002.21 1002.43 1002.68 1002.95 1003.14 1003.36 1003.76 1004.10 1004.54 1004.70 1004.61 1004.10 1003.80 1003.61 1002.92 1002.69 1002.82 1002.16 1002.01 1001.87 1002.12 1002.52 1002.51 1002.30 1002.61 1003.10 1003.68 1004.18 1004.62 1005.36 1006.11 1006.72
999.91 999.88 999.92 999.96 1000.19 1000.32 1000.46 1000.60 1000.57 1000.82 1001.17 1001.40 1001.44 1001.79 1002.18 1002.39 1002.55 1002.94 1003.45 1003.85 1004.12 1003.89 1003.40 1002.97 1002.67 1002.27 1001.83 1001.69 1001.86 1001.42 1001.46 1001.73 1001.97 1002.12 1001.85 1002.54 1002.92 1003.47 1003.92 1004.66 1005.43 1006.24 1006.67
999.44 999.31 999.32 999.42 999.72 999.86 999.91 1000.00 1000.20 1000.16 1000.14 1000.43 1000.51 1000.81 1001.19 1001.49 1001.83 1002.26 1002.82 1003.20 1003.26 1003.01 1002.66 1002.24 1001.74 1001.50 1001.17 1000.97 1001.28 1001.02 1001.08 1001.17 1001.48 1001.96 1002.68 1002.82 1003.26 1003.70 1003.82 1004.00 1004.66 1005.56 1006.04
998.67 998.64 998.65 998.66 998.74 998.76 998.87 999.18 999.47 999.60 999.78 999.66 999.65 999.89 1000.12 1000.48 1000.94 1001.30 1001.73 1002.36 1002.47 1002.16 1001.88 1001.46 1000.97 1000.68 1000.66 1000.42 1000.30 1000.05 999.92 1000.23 1000.91 1001.60 1002.50 1003.11 1003.67 1003.66 1003.92 1004.24 1004.37 1004.74 1005.41
998.21 997.96 997.86 997.84 997.84 997.90 998.08 998.28 998.58 998.87 998.87 998.97 999.16 999.41 999.48 999.76 1000.04 1000.52 1000.85 1001.31 1001.41 1001.57 1001.06 1000.86 1000.55 1000.33 1000.06 1000.02 1000.08 999.53 1000.12 1000.08 1000.94 1001.76 1002.71 1003.28 1003.57 1003.87 1004.09 1004.23 1004.32 1004.46 1004.75
997.56 997.22 997.05 997.08 997.04 997.14 997.20 997.25 997.56 997.70 997.67 997.69 998.09 998.35 998.61 999.02 999.40 999.66 999.88 1000.26 1000.46 1001.00 1000.51 1000.17 1000.03 999.97 999.92 999.93 999.90 999.96 999.73 1000.00 1001.01 1001.91 1002.49 1002.75 1003.26 1003.66 1004.09 1004.24 1004.46 1004.63 1004.76
996.47 996.18 996.05 996.09 995.92 995.91 995.86 995.91 996.00 996.18 996.33 996.52 996.54 996.88 997.40 998.03 998.36 998.77 999.24 999.22 999.50 999.92 999.78 999.54 999.50 999.37 999.51 999.18 1000.07 1000.07 999.53 1000.18 1000.84 1001.53 1001.88 1002.46 1003.41 1003.84 1004.06 1004.29 1004.60 1004.72 1004.60
995.20 995.01 994.82 994.67 994.53 994.37 994.25 994.30 994.34 994.39 994.71 995.02 995.24 995.71 996.19 996.54 996.89 997.47 997.89 998.00 998.33 998.11 998.49 998.58 998.60 998.65 998.87 999.05 999.04 999.67 999.84 1000.55 1000.97 1001.28 1001.78 1002.82 1003.41 1003.82 1004.17 1004.23 1004.42 1004.42 1004.57
993.94 993.60 993.34 993.11 993.00 992.98 993.00 992.94 992.97 993.09 993.38 993.72 994.11 994.56 995.09 995.45 996.01 996.48 996.72 997.08 997.61 997.93 998.22 997.78 997.60 997.56 997.71 998.05 998.66 999.06 1000.08 1000.37 1000.71 1001.22 1002.02 1002.68 1003.35 1003.74 1004.01 1004.16 1004.22 1004.45 1004.90
992.55 992.15 991.70 991.24 991.14 991.04 991.10 991.27 991.35 991.65 992.03 992.62 993.03 993.62 994.18 994.72 995.04 995.50 996.03 996.76 997.22 997.74 997.40 996.61 996.30 996.41 996.89 997.94 997.97 999.10 999.58 1000.23 1000.65 1001.32 1002.00 1002.68 1003.25 1003.53 1003.79 1004.04 1004.34 1004.66 1004.86
991.20 990.49 990.03 989.38 988.94 988.62 988.69 988.78 989.36 990.18 990.76 991.48 992.19 992.81 993.22 993.74 994.37 994.79 995.32 996.13 996.21 996.23 995.47 994.90 995.05 995.56 996.52 997.14 998.30 998.58 999.58 1000.28 1000.91 1001.41 1002.03 1002.78 1003.06 1003.41 1003.76 1004.08 1004.43 1004.56 1004.78
989.81 988.95 988.14 987.46 986.51 985.87 985.89 986.44 987.34 988.41 989.42 990.03 990.96 991.95 992.60 993.20 993.63 994.16 994.89 995.12 994.83 994.35 993.73 994.07 994.40 994.78 995.27 996.72 997.90 998.55 999.36 1000.28 1000.74 1001.25 1002.02 1002.35 1002.72 1003.08 1003.67 1004.16 1004.37 1004.56 1004.71
988.25 987.62 986.83 985.78 984.59 983.68 982.55 983.18 985.19 987.09 988.50 989.56 989.84 990.46 991.49 992.51 993.02 993.35 993.64 993.68 993.19 992.64 993.11 993.88 994.45 994.88 995.97 997.04 998.00 998.58 999.62 1000.10 1000.73 1001.10 1001.70 1002.04 1002.62 1003.11 1003.76 1004.11 1004.34 1004.70 1004.77
987.70 986.36 985.46 984.29 983.23 982.25 981.64 982.89 984.77 986.40 987.64 988.52 988.94 989.40 990.26 990.94 991.61 991.95 992.13 992.25 991.87 992.32 992.96 993.56 994.18 995.01 995.84 997.09 997.68 998.71 999.22 999.94 1000.31 1000.99 1001.34 1002.15 1002.79 1003.38 1003.73 1003.92 1004.19 1004.42 1004.58
987.01 985.81 984.26 983.33 982.87 983.22 983.57 984.21 985.12 986.06 986.89 987.44 988.08 988.94 989.52 990.24 990.70 991.22 991.02 991.40 992.10 992.66 993.01 993.38 994.04 994.88 995.79 996.67 997.56 998.30 998.84 999.67 1000.49 1000.61 1001.49 1002.26 1002.85 1003.28 1003.67 1003.98 1004.28 1004.55 1004.86
986.23 985.41 984.04 983.62 983.28 983.70 984.22 984.86 985.35 985.79 986.10 986.68 987.55 988.45 989.20 989.34 989.87 990.24 991.08 991.89 992.57 992.84 993.36 993.66 994.26 995.20 996.04 996.82 997.28 997.96 998.97 999.53 999.90 1000.85 1001.63 1002.29 1002.89 1003.40 1003.84 1004.20 1004.45 1004.83 1005.20
985.74 984.87 984.40 984.40 984.27 984.21 984.52 984.82 985.08 985.54 985.87 986.46 987.27 988.01 988.65 989.39 990.38 991.40 992.18 992.74 993.04 993.26 993.62 994.34 995.11 995.70 996.39 997.20 997.92 998.28 998.52 999.49 1000.62 1001.28 1001.70 1002.42 1003.18 1003.74 1004.13 1004.45 1004.80 1005.28 1005.69
985.01 985.02 985.16 985.50 985.79 985.88 986.13 986.46 986.86 987.41 988.06 988.58 988.72 989.22 989.91 990.89 991.60 992.45 993.07 993.49 994.01 994.54 995.03 995.46 995.86 996.36 997.04 997.44 997.82 998.61 999.55 1000.29 1001.06 1001.39 1002.09 1002.81 1003.48 1004.00 1004.52 1005.04 1005.52 1006.01 1006.38
985.70 986.08 986.44 986.86 987.20 987.55 987.92 988.46 988.91 989.14 989.75 990.47 990.54 991.17 991.93 992.64 993.32 993.92 994.42 994.81 995.34 995.98 996.50 997.06 997.31 997.54 997.88 998.36 998.91 999.43 1000.37 1001.01 1001.70 1001.97 1002.52 1003.32 1004.04 1004.79 1005.30 1005.87 1006.45 1006.91 1007.38
Thickness
5623 5622 5620 5616 5614 5615 5616 5621 5624 5627 5628 5629 5632 5633 5633 5634 5637 5638 5646 5655 5656 5661 5668 5670 5679 5684 5687 5688 5699 5695 5690 5687 5686 5698 5694 5699 5701 5701 5700 5698 5696 5690 5684
5613 5612 5613 5613 5608 5605 5606 5609 5613 5617 5620 5622 5624 5625 5627 5628 5629 5628 5629 5637 5640 5650 5656 5661 5671 5677 5684 5691 5692 5693 5693 5690 5685 5687 5690 5690 5687 5694 5694 5688 5688 5684 5677
5604 5600 5605 5607 5602 5600 5602 5601 5602 5605 5608 5611 5613 5614 5616 5619 5619 5619 5621 5626 5626 5641 5647 5652 5662 5670 5683 5689 5690 5693 5690 5690 5685 5684 5687 5685 5677 5685 5684 5682 5679 5678 5671
5599 5597 5596 5596 5597 5596 5597 5596 5597 5599 5600 5602 5605 5607 5608 5609 5610 5611 5611 5611 5616 5628 5636 5644 5656 5664 5676 5685 5687 5690 5686 5683 5683 5679 5679 5678 5673 5680 5680 5674 5670 5671 5663
5592 5592 5594 5594 5591 5593 5590 5590 5590 5591 5595 5596 5597 5599 5602 5602 5605 5607 5608 5612 5615 5618 5630 5641 5649 5660 5670 5675 5676 5681 5680 5675 5675 5676 5673 5676 5674 5674 5673 5669 5666 5663 5657
5582 5585 5588 5589 5586 5582 5582 5587 5584 5585 5587 5588 5589 5592 5593 5597 5600 5600 5602 5606 5613 5615 5627 5637 5645 5655 5665 5669 5671 5674 5679 5673 5672 5674 5676 5679 5674 5673 5668 5665 5659 5653 5648
5566 5576 5579 5579 5578 5582 5578 5576 5576 5579 5581 5581 5584 5586 5588 5590 5593 5595 5599 5603 5607 5608 5619 5630 5640 5652 5657 5664 5668 5671 5674 5677 5679 5681 5677 5680 5673 5674 5670 5660 5655 5654 5650
5561 5566 5567 5570 5572 5573 5573 5577 5577 5574 5574 5579 5583 5584 5586 5588 5589 5589 5591 5594 5599 5606 5615 5624 5631 5644 5650 5654 5665 5669 5674 5672 5672 5677 5680 5680 5679 5674 5670 5666 5659 5652 5643
5550 5553 5555 5559 5561 5563 5565 5569 5574 5575 5574 5576 5579 5580 5580 5583 5585 5586 5587 5590 5595 5604 5613 5621 5632 5641 5648 5652 5657 5665 5667 5669 5670 5670 5675 5674 5672 5667 5665 5659 5651 5642 5636
5538 5542 5544 5545 5546 5550 5554 5557 5563 5567 5571 5572 5577 5578 5579 5581 5580 5581 5582 5585 5592 5603 5610 5620 5629 5638 5644 5649 5653 5661 5664 5667 5667 5666 5662 5663 5662 5659 5658 5658 5650 5639 5632
5530 5532 5535 5538 5541 5542 5544 5548 5548 5552 5556 5563 5570 5573 5574 5575 5576 5579 5583 5581 5587 5599 5609 5619 5629 5632 5638 5643 5648 5662 5667 5665 5665 5664 5658 5657 5653 5654 5652 5648 5645 5638 5629
5518 5522 5525 5527 5529 5532 5529 5531 5532 5535 5539 5546 5550 5553 5561 5567 5570 5575 5579 5578 5583 5593 5607 5617 5623 5625 5633 5639 5643 5655 5654 5659 5656 5655 5651 5650 5647 5644 5643 5640 5636 5633 5628
5505 5509 5511 5511 5514 5515 5515 5518 5517 5520 5527 5532 5536 5544 5551 5555 5560 5569 5574 5575 5579 5583 5600 5610 5615 5622 5627 5633 5639 5646 5650 5654 5652 5648 5649 5649 5642 5638 5634 5631 5628 5625 5622
5498 5502 5503 5501 5504 5504 5505 5507 5509 5512 5516 5521 5530 5536 5542 5546 5554 5562 5568 5574 5579 5584 5596 5607 5614 5621 5624 5633 5633 5639 5648 5646 5647 5648 5649 5645 5634 5630 5628 5625 5621 5619 5619
5496 5496 5495 5494 5495 5496 5497 5499 5502 5507 5512 5517 5524 5528 5533 5543 5555 5557 5565 5576 5581 5592 5599 5607 5615 5622 5626 5631 5638 5639 5639 5639 5642 5644 5644 5633 5628 5625 5622 5620 5617 5617 5616
5494 5494 5492 5489 5487 5486 5486 5490 5492 5496 5502 5506 5513 5523 5532 5540 5545 5551 5560 5568 5571 5581 5596 5609 5618 5626 5631 5634 5638 5634 5630 5636 5638 5638 5633 5628 5624 5622 5619 5617 5615 5613 5608
5496 5495 5492 5490 5487 5486 5486 5487 5489 5490 5492 5498 5506 5511 5521 5532 5535 5546 5556 5560 5565 5575 5597 5613 5622 5631 5632 5628 5634 5630 5633 5633 5634 5632 5627 5623 5620 5620 5617 5614 5611 5607 5602
5501 5501 5498 5495 5493 5494 5492 5496 5494 5493 5496 5497 5500 5513 5519 5527 5533 5543 5549 5555 5575 5582 5607 5618 5629 5634 5630 5626 5626 5634 5630 5629 5628 5626 5624 5620 5618 5617 5614 5612 5608 5607 5604
5508 5509 5509 5506 5507 5506 5505 5506 5505 5502 5502 5504 5507 5510 5518 5525 5534 5540 5544 5563 5581 5598 5614 5623 5633 5640 5639 5634 5629 5630 5630 5627 5626 5626 5622 5619 5618 5617 5612 5609 5605 5601 5601
5525 5521 5523 5519 5518 5519 5529 5529 5520 5512 5509 5509 5519 5528 5529 5534 5545 5552 5560 5572 5591 5611 5622 5628 5634 5637 5633 5629 5627 5627 5625 5625 5623 5625 5618 5619 5616 5612 5607 5605 5602 5600 5600
5529 5536 5532 5532 5542 5547 5549 5540 5529 5521 5520 5525 5535 5543 5543 5554 5560 5570 5581 5594 5611 5621 5627 5631 5633 5632 5633 5629 5627 5625 5627 5623 5624 5618 5618 5612 5608 5605 5604 5604 5603 5602 5601
5543 5548 5558 5568 5566 5556 5550 5546 5543 5544 5545 5551 5556 5553 5555 5568 5576 5585 5601 5610 5615 5621 5627 5632 5633 5637 5635 5630 5627 5626 5626 5622 5615 5619 5612 5606 5604 5604 5603 5602 5600 5599 5597
5560 5565 5584 5585 5585 5572 5571 5565 5564 5567 5572 5573 5571 5573 5579 5592 5598 5605 5609 5612 5616 5622 5625 5631 5633 5632 5628 5626 5627 5625 5618 5617 5618 5611 5606 5604 5603 5601 5600 5598 5597 5594 5592
5577 5590 5597 5597 5595 5596 5595 5593 5592 5590 5599 5600 5601 5603 5605 5605 5604 5603 5605 5608 5613 5619 5624 5625 5624 5624 5621 5619 5617 5619 5621 5614 5608 5603 5603 5600 5596 5594 5594 5592 5590 5586 5583
5604 5608 5605 5601 5599 5600 5599 5599 5599 5597 5596 5597 5600 5601 5601 5600 5601 5602 5604 5606 5609 5612 5613 5615 5616 5616 5615 5616 5616 5611 5605 5602 5600 5598 5596 5593 5591 5589 5586 5583 5580 5578 5576
5609 5608 5606 5603 5600 5599 5597 5594 5592 5592 5591 5589 5596 5595 5595 5594 5594 5595 5597 5599 5600 5600 5600 5599 5602 5603 5604 5604 5602 5600 5597 5594 5592 5592 5590 5586 5583 5579 5576 5572 5569 5567 5564